TimeMDT,TemperatureF,Dew PointF,Humidity,Sea Level PressureIn,VisibilityMPH,Wind Direction,Wind SpeedMPH,Gust SpeedMPH,PrecipitationIn,Events,Conditions,WindDirDegrees,DateUTC
12:51 AM,66.9,53.1,61,29.79,10.0,ESE,4.6,-,N/A,,Clear,120,2013-09-22 06:51:00
1:51 AM,66.9,53.1,61,29.79,10.0,Calm,Calm,-,N/A,,Clear,0,2013-09-22 07:51:00
2:51 AM,64.9,53.1,65,29.78,10.0,Calm,Calm,-,N/A,,Clear,0,2013-09-22 08:51:00
3:51 AM,64.0,54.0,70,29.76,10.0,Calm,Calm,-,N/A,,Clear,0,2013-09-22 09:51:00
4:51 AM,64.0,54.0,70,29.75,10.0,Calm,Calm,-,N/A,,Clear,0,2013-09-22 10:51:00
5:51 AM,62.1,53.1,72,29.77,10.0,Calm,Calm,-,N/A,,Clear,0,2013-09-22 11:51:00
6:51 AM,63.0,53.1,70,29.77,10.0,Calm,Calm,-,N/A,,Clear,0,2013-09-22 12:51:00
7:51 AM,64.9,55.0,70,29.78,10.0,Calm,Calm,-,N/A,,Clear,0,2013-09-22 13:51:00
8:51 AM,68.0,54.0,61,29.78,10.0,SSE,5.8,-,N/A,,Clear,160,2013-09-22 14:51:00
9:51 AM,71.1,54.0,55,29.78,10.0,SSE,9.2,-,N/A,,Clear,150,2013-09-22 15:51:00
10:51 AM,73.9,54.0,50,29.76,10.0,SSE,12.7,-,N/A,,Clear,160,2013-09-22 16:51:00
11:51 AM,75.9,52.0,43,29.74,10.0,South,9.2,-,N/A,,Partly Cloudy,170,2013-09-22 17:51:00
12:51 PM,79.0,53.1,40,29.70,10.0,SSE,11.5,16.1,N/A,,Partly Cloudy,160,2013-09-22 18:51:00
1:51 PM,81.0,53.1,38,29.67,10.0,South,15.0,20.7,N/A,,Partly Cloudy,170,2013-09-22 19:51:00
2:51 PM,82.9,52.0,34,29.64,10.0,SSW,10.4,16.1,N/A,,Partly Cloudy,200,2013-09-22 20:51:00
3:51 PM,84.0,51.1,32,29.61,10.0,SE,12.7,17.3,N/A,,Partly Cloudy,130,2013-09-22 21:51:00
4:51 PM,84.0,48.9,29,29.58,10.0,SSE,12.7,-,N/A,,Scattered Clouds,150,2013-09-22 22:51:00
5:51 PM,82.9,48.9,31,29.57,10.0,SSE,13.8,19.6,N/A,,Scattered Clouds,150,2013-09-22 23:51:00
6:51 PM,82.0,48.0,30,29.56,10.0,SSE,11.5,-,N/A,,Scattered Clouds,150,2013-09-23 00:51:00
7:51 PM,80.1,50.0,35,29.57,10.0,SSE,9.2,-,N/A,,Scattered Clouds,150,2013-09-23 01:51:00
8:51 PM,79.0,48.9,35,29.58,10.0,SSE,12.7,-,N/A,,Scattered Clouds,150,2013-09-23 02:51:00
9:51 PM,77.0,50.0,39,29.60,10.0,South,6.9,-,N/A,,Scattered Clouds,170,2013-09-23 03:51:00
10:51 PM,75.0,51.1,43,29.61,10.0,South,8.1,-,N/A,,Scattered Clouds,170,2013-09-23 04:51:00
11:51 PM,75.9,50.0,40,29.61,10.0,South,8.1,-,N/A,,Mostly Cloudy,170,2013-09-23 05:51:00